,,Stat5,,Stat1,,Stat2,,Stat3,,Stat4,,Wind1,,Wind1,
time,status,PA1M_AVG,status,PR1M_SUM,status,RH1M_AVG,status,SR1M_AVG,status,TA1M_AVG,status,W1dAve1m,status,W1sAve1m,
2003-02-27, 00:00:01,VALID,918.402,VALID,0,VALID,96.7462,VALID,0,VALID,20.0287,VALID,90,VALID,0.625422,
2003-02-27, 00:01:01,VALID,918.405,VALID,0,VALID,96.1753,VALID,0,VALID,19.9573,VALID,81,VALID,0.684462,
2003-02-27, 00:02:00,VALID,918.408,VALID,0,VALID,96.1206,VALID,0,VALID,19.9026,VALID,67,VALID,0.763158,
2003-02-27, 00:03:00,VALID,918.418,VALID,0,VALID,96.5364,VALID,0,VALID,19.9285,VALID,60,VALID,0.698518,
2003-02-27, 00:04:01,VALID,918.432,VALID,0,VALID,96.7551,VALID,0,VALID,19.9645,VALID,60,VALID,0.645559,
2003-02-27, 00:05:01,VALID,918.429,VALID,0,VALID,96.4067,VALID,0.0169808,VALID,19.961,VALID,60,VALID,0.35637,
2003-02-27, 00:06:01,VALID,918.436,VALID,0,VALID,96.0417,VALID,0,VALID,19.9031,VALID,60,VALID,0.43109,
2003-02-27, 00:07:01,VALID,918.421,VALID,0,VALID,95.9782,VALID,0.0169808,VALID,19.8573,VALID,60,VALID,0.355674,
2003-02-27, 00:08:01,VALID,918.388,VALID,0,VALID,96.2223,VALID,0,VALID,19.8412,VALID,60,VALID,0.515008,
2003-02-27, 00:09:01,VALID,918.349,VALID,0,VALID,96.1269,VALID,0,VALID,19.8215,VALID,60,VALID,0.643298,
2003-02-27, 00:10:01,VALID,918.3,VALID,0,VALID,96.778,VALID,0,VALID,19.8767,VALID,60,VALID,0.827665,
2003-02-27, 00:11:00,VALID,918.265,VALID,0,VALID,97.2104,VALID,0,VALID,19.961,VALID,61,VALID,0.912109,
2003-02-27, 00:12:01,VALID,918.243,VALID,0,VALID,97.5015,VALID,0,VALID,20.0675,VALID,61,VALID,0.898638,
2003-02-27, 00:13:01,VALID,918.228,VALID,0,VALID,97.3808,VALID,0,VALID,20.1259,VALID,61,VALID,0.731908,
2003-02-27, 00:14:01,VALID,918.212,VALID,0,VALID,97.218,VALID,-0.0169808,VALID,20.1744,VALID,65,VALID,0.690584,
2003-02-27, 00:15:01,VALID,918.195,VALID,0,VALID,97.2612,VALID,-0.0169808,VALID,20.2137,VALID,78,VALID,0.773838,
2003-02-27, 00:16:01,VALID,918.16,VALID,0,VALID,96.9586,VALID,-0.0169808,VALID,20.252,VALID,97,VALID,0.696484,
2003-02-27, 00:17:01,VALID,918.135,VALID,0,VALID,96.6674,VALID,-0.0169808,VALID,20.2587,VALID,114,VALID,0.480152,
2003-02-27, 00:18:01,VALID,918.106,VALID,0,VALID,96.4868,VALID,-0.0339617,VALID,20.2455,VALID,116,VALID,0.414663,
2003-02-27, 00:19:01,VALID,918.093,VALID,0,VALID,96.408,VALID,0,VALID,20.2423,VALID,116,VALID,0.494191,
2003-02-27, 00:20:01,VALID,918.08,VALID,0,VALID,96.3088,VALID,-0.0169808,VALID,20.2358,VALID,114,VALID,0.436233,
2003-02-27, 00:21:01,VALID,918.086,VALID,0,VALID,96.2147,VALID,-0.0339617,VALID,20.2264,VALID,114,VALID,0.296453,
2003-02-27, 00:22:01,VALID,918.091,VALID,0,VALID,96.2236,VALID,-0.0169808,VALID,20.2102,VALID,114,VALID,0.262305,
2003-02-27, 00:23:01,VALID,918.098,VALID,0,VALID,96.0863,VALID,-0.0169808,VALID,20.2067,VALID,114,VALID,0.00735294,
2003-02-27, 00:24:01,VALID,918.074,VALID,0,VALID,96.0061,VALID,0,VALID,20.1744,VALID,120,VALID,0.224712,
2003-02-27, 00:25:01,VALID,918.052,VALID,0,VALID,96.1117,VALID,0,VALID,20.1684,VALID,142,VALID,0.565905,
2003-02-27, 00:26:01,VALID,918.032,VALID,0,VALID,96.2121,VALID,0,VALID,20.1555,VALID,144,VALID,0.244038,
2003-02-27, 00:27:01,VALID,918.006,VALID,0,VALID,96.3279,VALID,-0.0169808,VALID,20.152,VALID,159,VALID,0.369449,
2003-02-27, 00:28:01,VALID,917.986,VALID,0,VALID,96.3749,VALID,-0.0169808,VALID,20.1485,VALID,166,VALID,0.35423,
2003-02-27, 00:29:01,VALID,917.961,VALID,0,VALID,96.324,VALID,-0.0169808,VALID,20.1359,VALID,155,VALID,0.270433,
2003-02-27, 00:30:01,VALID,917.919,VALID,0,VALID,96.4868,VALID,0,VALID,20.113,VALID,155,VALID,0.555099,
2003-02-27, 00:31:01,VALID,917.897,VALID,0,VALID,96.6636,VALID,-0.0169808,VALID,20.1232,VALID,155,VALID,0.361979,
2003-02-27, 00:32:01,VALID,917.877,VALID,0,VALID,96.792,VALID,0,VALID,20.113,VALID,157,VALID,0.411659,
2003-02-27, 00:33:01,VALID,917.866,VALID,0,VALID,96.8225,VALID,0,VALID,20.1127,VALID,157,VALID,0.361378,
2003-02-27, 00:34:00,VALID,917.861,VALID,0,VALID,96.881,VALID,-0.0339617,VALID,20.0936,VALID,173,VALID,0.197163,
2003-02-27, 00:35:00,VALID,917.887,VALID,0,VALID,96.9319,VALID,0,VALID,20.0973,VALID,173,VALID,0.0435855,
2003-02-27, 00:36:00,VALID,917.91,VALID,0,VALID,96.8111,VALID,0,VALID,20.0645,VALID,208,VALID,0.305607,
2003-02-27, 00:37:00,VALID,917.927,VALID,0,VALID,96.97,VALID,-0.0339617,VALID,20.0558,VALID,216,VALID,0.457617,
2003-02-27, 00:38:00,VALID,917.909,VALID,0,VALID,97.3057,VALID,0,VALID,20.0806,VALID,204,VALID,0.556743,
2003-02-27, 00:39:00,VALID,917.891,VALID,0,VALID,97.4761,VALID,0,VALID,20.1162,VALID,202,VALID,0.378689,
2003-02-27, 00:40:00,VALID,917.856,VALID,0,VALID,97.3604,VALID,0,VALID,20.0968,VALID,195,VALID,0.497466,
2003-02-27, 00:41:00,VALID,917.839,VALID,0,VALID,97.2282,VALID,-0.0169808,VALID,20.0911,VALID,187,VALID,0.299805,
2003-02-27, 00:42:00,VALID,917.823,VALID,0,VALID,97.1926,VALID,0,VALID,20.0513,VALID,187,VALID,0.228125,
2003-02-27, 00:43:00,VALID,917.817,VALID,0,VALID,97.3057,VALID,0,VALID,20.0548,VALID,187,VALID,0.0941506,
2003-02-27, 00:44:00,VALID,917.811,VALID,0,VALID,97.2599,VALID,-0.0169808,VALID,20.0515,VALID,187,VALID,0.009375,
2003-02-27, 00:45:00,VALID,917.814,VALID,0,VALID,97.148,VALID,0,VALID,20.0555,VALID,187,VALID,0,
2003-02-27, 00:46:00,VALID,917.806,VALID,0,VALID,97.0984,VALID,0,VALID,20.0322,VALID,187,VALID,0,
2003-02-27, 00:47:00,VALID,917.792,VALID,0,VALID,97.0616,VALID,0,VALID,20.0257,VALID,188,VALID,0.17652,
2003-02-27, 00:48:00,VALID,917.782,VALID,0,VALID,97.0997,VALID,-0.0169808,VALID,20.0327,VALID,203,VALID,0.304102,
2003-02-27, 00:49:00,VALID,917.765,VALID,0,VALID,97.0565,VALID,-0.0169808,VALID,20.0125,VALID,203,VALID,0.0196429,
2003-02-27, 00:50:00,VALID,917.751,VALID,0,VALID,97.0819,VALID,0,VALID,20.0257,VALID,203,VALID,0.146484,
2003-02-27, 00:51:00,VALID,917.73,VALID,0,VALID,97.1544,VALID,0,VALID,20.0521,VALID,203,VALID,0.171875,
2003-02-27, 00:52:00,VALID,917.714,VALID,0,VALID,97.2803,VALID,0,VALID,20.0707,VALID,200,VALID,0.276316,
2003-02-27, 00:53:00,VALID,917.701,VALID,0,VALID,97.3197,VALID,0,VALID,20.1065,VALID,210,VALID,0.395354,
2003-02-27, 00:54:00,VALID,917.689,VALID,0,VALID,97.4965,VALID,0,VALID,20.1719,VALID,229,VALID,0.323317,
2003-02-27, 00:55:00,VALID,917.666,VALID,0,VALID,97.527,VALID,0,VALID,20.2194,VALID,233,VALID,0.323438,
2003-02-27, 00:56:00,VALID,917.645,VALID,0,VALID,97.4049,VALID,-0.0169808,VALID,20.2657,VALID,263,VALID,0.320524,
2003-02-27, 00:57:00,VALID,917.628,VALID,0,VALID,96.9382,VALID,0,VALID,20.2552,VALID,200,VALID,0.157252,
2003-02-27, 00:58:00,VALID,917.613,VALID,0,VALID,96.5084,VALID,-0.0339617,VALID,20.2003,VALID,176,VALID,0.0863381,
2003-02-27, 00:59:00,VALID,917.603,VALID,0,VALID,96.3673,VALID,0,VALID,20.1649,VALID,176,VALID,0.111486,
2003-02-27, 01:00:00,VALID,917.597,VALID,0,VALID,96.4347,VALID,0,VALID,20.155,VALID,175,VALID,0.171453,
2003-02-27, 01:01:00,VALID,917.6,VALID,0,VALID,96.5072,VALID,0,VALID,20.1523,VALID,175,VALID,0.189063,
2003-02-27, 01:02:00,VALID,917.577,VALID,0,VALID,96.614,VALID,0,VALID,20.1684,VALID,180,VALID,0.455423,
2003-02-27, 01:03:00,VALID,917.572,VALID,0,VALID,96.8034,VALID,0,VALID,20.1943,VALID,186,VALID,0.576275,
2003-02-27, 01:04:00,VALID,917.562,VALID,0,VALID,96.9853,VALID,-0.0339617,VALID,20.2299,VALID,185,VALID,0.777043,
2003-02-27, 01:05:00,VALID,917.567,VALID,0,VALID,97.1099,VALID,0,VALID,20.2587,VALID,180,VALID,0.651727,
2003-02-27, 01:06:00,VALID,917.568,VALID,0,VALID,97.143,VALID,0,VALID,20.2905,VALID,179,VALID,0.546258,
2003-02-27, 01:07:00,VALID,917.567,VALID,0,VALID,97.1099,VALID,0,VALID,20.3134,VALID,176,VALID,0.743521,
2003-02-27, 01:08:00,VALID,917.573,VALID,0,VALID,97.04,VALID,0,VALID,20.3358,VALID,170,VALID,0.410857,
2003-02-27, 01:09:00,VALID,917.583,VALID,0,VALID,96.984,VALID,0,VALID,20.3425,VALID,170,VALID,0.099301,
2003-02-27, 01:10:00,VALID,917.586,VALID,0,VALID,97.026,VALID,0,VALID,20.3651,VALID,170,VALID,0.0685096,
2003-02-27, 01:11:00,VALID,917.572,VALID,0,VALID,96.9268,VALID,0,VALID,20.3614,VALID,170,VALID,0.111579,
2003-02-27, 01:12:00,VALID,917.559,VALID,0,VALID,96.764,VALID,0,VALID,20.3748,VALID,170,VALID,0.159054,
2003-02-27, 01:13:00,VALID,917.535,VALID,0,VALID,96.7602,VALID,0.0339617,VALID,20.3713,VALID,170,VALID,0.13199,
2003-02-27, 01:14:00,VALID,917.522,VALID,0,VALID,96.8594,VALID,0.0339617,VALID,20.3706,VALID,153,VALID,0.268709,
2003-02-27, 01:15:00,VALID,917.519,VALID,0,VALID,96.9319,VALID,0,VALID,20.3838,VALID,146,VALID,0.577665,
2003-02-27, 01:16:00,VALID,917.512,VALID,0,VALID,96.9204,VALID,0,VALID,20.4134,VALID,145,VALID,0.471484,
2003-02-27, 01:17:00,VALID,917.507,VALID,0,VALID,96.9166,VALID,0,VALID,20.4363,VALID,144,VALID,0.225123,
2003-02-27, 01:18:00,VALID,917.51,VALID,0,VALID,96.8212,VALID,0.0169808,VALID,20.4193,VALID,114,VALID,0.549696,
2003-02-27, 01:19:00,VALID,917.5,VALID,0,VALID,96.7246,VALID,0,VALID,20.433,VALID,87,VALID,1.10895,
2003-02-27, 01:20:00,VALID,917.497,VALID,0,VALID,96.6547,VALID,0,VALID,20.3975,VALID,94,VALID,1.08008,
2003-02-27, 01:21:00,VALID,917.489,VALID,0,VALID,96.7246,VALID,0,VALID,20.3487,VALID,90,VALID,1.12344,
2003-02-27, 01:22:00,VALID,917.47,VALID,0,VALID,96.8174,VALID,0,VALID,20.3129,VALID,89,VALID,1.16386,
2003-02-27, 01:23:00,VALID,917.472,VALID,0,VALID,96.9497,VALID,0,VALID,20.2806,VALID,92,VALID,1.16523,
2003-02-27, 01:24:00,VALID,917.471,VALID,0,VALID,97.0883,VALID,0,VALID,20.2482,VALID,89,VALID,1.0584,
2003-02-27, 01:25:00,VALID,917.483,VALID,0,VALID,97.2421,VALID,0,VALID,20.2423,VALID,85,VALID,0.899916,
2003-02-27, 01:26:00,VALID,917.487,VALID,0,VALID,97.3871,VALID,0.0169808,VALID,20.2062,VALID,77,VALID,0.496833,
2003-02-27, 01:27:00,VALID,917.489,VALID,0,VALID,97.4799,VALID,0,VALID,20.1997,VALID,85,VALID,0.517578,
2003-02-27, 01:28:00,VALID,917.497,VALID,0,VALID,97.5664,VALID,-0.0169808,VALID,20.1997,VALID,88,VALID,0.464286,
2003-02-27, 01:29:00,VALID,917.489,VALID,0,VALID,97.6491,VALID,0,VALID,20.2164,VALID,76,VALID,0.234766,
2003-02-27, 01:30:00,VALID,917.479,VALID,0,VALID,97.6719,VALID,0,VALID,20.2065,VALID,71,VALID,0.183093,
2003-02-27, 01:31:00,VALID,917.477,VALID,0,VALID,97.663,VALID,0.0169808,VALID,20.2259,VALID,71,VALID,0.116982,
2003-02-27, 01:32:00,VALID,917.478,VALID,0,VALID,97.5995,VALID,0,VALID,20.2226,VALID,71,VALID,0.072574,
2003-02-27, 01:33:00,VALID,917.488,VALID,0,VALID,97.5779,VALID,0,VALID,20.2453,VALID,71,VALID,0.0919471,
2003-02-27, 01:34:00,VALID,917.49,VALID,0,VALID,97.5435,VALID,0,VALID,20.255,VALID,71,VALID,0.233008,
2003-02-27, 01:35:00,VALID,917.488,VALID,0,VALID,97.5003,VALID,0,VALID,20.2579,VALID,75,VALID,0.437711,
2003-02-27, 01:36:00,VALID,917.484,VALID,0,VALID,97.4558,VALID,0,VALID,20.2644,VALID,81,VALID,0.360978,
2003-02-27, 01:37:00,VALID,917.482,VALID,0,VALID,97.4214,VALID,0.0169808,VALID,20.2612,VALID,82,VALID,0.431891,
2003-02-27, 01:38:00,VALID,917.466,VALID,0,VALID,97.3782,VALID,0.0169808,VALID,20.2647,VALID,93,VALID,0.373522,
2003-02-27, 01:39:00,VALID,917.454,VALID,0,VALID,97.4481,VALID,0.0169808,VALID,20.2582,VALID,95,VALID,0.324113,
2003-02-27, 01:40:00,VALID,917.431,VALID,0,VALID,97.5308,VALID,0,VALID,20.2684,VALID,99,VALID,0.291992,
2003-02-27, 01:41:00,VALID,917.411,VALID,0,VALID,97.5766,VALID,0,VALID,20.2644,VALID,117,VALID,0.25,
2003-02-27, 01:42:00,VALID,917.384,VALID,0,VALID,97.6071,VALID,0.0169808,VALID,20.2811,VALID,115,VALID,0.563939,
2003-02-27, 01:43:00,VALID,917.37,VALID,0,VALID,97.5766,VALID,0,VALID,20.2873,VALID,100,VALID,0.649239,
2003-02-27, 01:44:00,VALID,917.353,VALID,0,VALID,97.6262,VALID,0.0169808,VALID,20.2838,VALID,88,VALID,0.608141,
2003-02-27, 01:45:00,VALID,917.337,VALID,0,VALID,97.5689,VALID,0,VALID,20.2711,VALID,88,VALID,0.531044,
2003-02-27, 01:46:00,VALID,917.326,VALID,0,VALID,97.5893,VALID,0,VALID,20.2676,VALID,87,VALID,0.698171,
2003-02-27, 01:47:00,VALID,917.322,VALID,0,VALID,97.6007,VALID,0,VALID,20.2776,VALID,86,VALID,0.663862,
2003-02-27, 01:48:00,VALID,917.325,VALID,0,VALID,97.541,VALID,-0.0169808,VALID,20.2714,VALID,83,VALID,0.803043,
2003-02-27, 01:49:00,VALID,917.305,VALID,0,VALID,97.5537,VALID,0,VALID,20.2477,VALID,72,VALID,0.820713,
2003-02-27, 01:50:00,VALID,917.285,VALID,0,VALID,97.5028,VALID,0.0169808,VALID,20.2584,VALID,72,VALID,1.05088,
2003-02-27, 01:51:00,VALID,917.266,VALID,0,VALID,97.4583,VALID,0,VALID,20.2321,VALID,68,VALID,0.945513,
2003-02-27, 01:52:00,VALID,917.269,VALID,0,VALID,97.452,VALID,0,VALID,20.2191,VALID,68,VALID,0.555921,
2003-02-27, 01:53:00,VALID,917.254,VALID,0,VALID,97.4901,VALID,0,VALID,20.2162,VALID,68,VALID,0.472451,
2003-02-27, 01:54:00,VALID,917.262,VALID,0,VALID,97.5168,VALID,0,VALID,20.2067,VALID,68,VALID,0.553998,
2003-02-27, 01:55:00,VALID,917.257,VALID,0,VALID,97.5346,VALID,0,VALID,20.193,VALID,71,VALID,0.705078,
2003-02-27, 01:56:00,VALID,917.253,VALID,0,VALID,97.4939,VALID,0.0169808,VALID,20.1764,VALID,80,VALID,0.758635,
2003-02-27, 01:57:00,VALID,917.252,VALID,0,VALID,97.555,VALID,0.0169808,VALID,20.157,VALID,76,VALID,0.74783,
2003-02-27, 01:58:00,VALID,917.251,VALID,0,VALID,97.5461,VALID,0.0169808,VALID,20.1577,VALID,75,VALID,0.614231,
2003-02-27, 01:59:00,VALID,917.241,VALID,0,VALID,97.4888,VALID,0,VALID,20.1423,VALID,74,VALID,0.524023,
2003-02-27, 02:00:00,VALID,917.238,VALID,0,VALID,97.4392,VALID,0,VALID,20.1324,VALID,72,VALID,0.233789,
2003-02-27, 02:01:00,VALID,917.237,VALID,0,VALID,97.4291,VALID,0,VALID,20.1,VALID,72,VALID,0.00721154,
2003-02-27, 02:02:00,VALID,917.245,VALID,0,VALID,97.4189,VALID,0,VALID,20.0834,VALID,72,VALID,0,
2003-02-27, 02:03:00,VALID,917.259,VALID,0,VALID,97.3629,VALID,0,VALID,20.064,VALID,72,VALID,0,
2003-02-27, 02:04:00,VALID,917.264,VALID,0,VALID,97.3973,VALID,0,VALID,20.0545,VALID,72,VALID,0,
2003-02-27, 02:05:00,VALID,917.258,VALID,0,VALID,97.3095,VALID,0,VALID,20.0518,VALID,72,VALID,0.0126689,
2003-02-27, 02:06:00,VALID,917.244,VALID,0,VALID,97.2612,VALID,0,VALID,20.0354,VALID,72,VALID,0.176758,
2003-02-27, 02:07:00,VALID,917.22,VALID,0,VALID,97.4392,VALID,-0.0169808,VALID,20.0453,VALID,79,VALID,0.490402,
2003-02-27, 02:08:00,VALID,917.197,VALID,0,VALID,97.6109,VALID,0,VALID,20.0717,VALID,122,VALID,0.601953,
2003-02-27, 02:09:00,VALID,917.169,VALID,0,VALID,97.6414,VALID,0,VALID,20.0769,VALID,142,VALID,0.895833,
2003-02-27, 02:10:00,VALID,917.159,VALID,0,VALID,97.7076,VALID,-0.0169808,VALID,20.0941,VALID,146,VALID,0.988281,
2003-02-27, 02:11:00,VALID,917.179,VALID,0,VALID,97.7241,VALID,0,VALID,20.1,VALID,141,VALID,0.670436,
2003-02-27, 02:12:00,VALID,917.188,VALID,0,VALID,97.7521,VALID,0.0169808,VALID,20.0963,VALID,141,VALID,0.52484,
2003-02-27, 02:13:00,VALID,917.206,VALID,0,VALID,97.7076,VALID,0.0169808,VALID,20.0963,VALID,135,VALID,0.501172,
2003-02-27, 02:14:00,VALID,917.211,VALID,0,VALID,97.7521,VALID,0,VALID,20.1095,VALID,129,VALID,0.569468,
2003-02-27, 02:15:00,VALID,917.226,VALID,0,VALID,97.7699,VALID,0.0169808,VALID,20.1125,VALID,127,VALID,0.638822,
2003-02-27, 02:16:00,VALID,917.224,VALID,0,VALID,97.8144,VALID,0.0169808,VALID,20.1418,VALID,135,VALID,0.600761,
2003-02-27, 02:17:00,VALID,917.234,VALID,0,VALID,97.7826,VALID,-0.0169808,VALID,20.1483,VALID,131,VALID,0.405828,
2003-02-27, 02:18:00,VALID,917.226,VALID,0,VALID,97.7343,VALID,0,VALID,20.1644,VALID,108,VALID,0.579603,
2003-02-27, 02:19:00,VALID,917.242,VALID,0,VALID,97.6541,VALID,-0.0169808,VALID,20.1714,VALID,101,VALID,0.531641,
2003-02-27, 02:20:00,VALID,917.245,VALID,0,VALID,97.5715,VALID,-0.0169808,VALID,20.1749,VALID,101,VALID,0.336627,
2003-02-27, 02:21:00,VALID,917.235,VALID,0,VALID,97.3357,VALID,-0.0339617,VALID,20.1763,VALID,45,VALID,0.450586,
2003-02-27, 02:22:00,VALID,917.224,VALID,0,VALID,97.073,VALID,-0.0339617,VALID,20.1391,VALID,45,VALID,0.324119,
2003-02-27, 02:23:00,VALID,917.215,VALID,0,VALID,97.0018,VALID,-0.0509425,VALID,20.0968,VALID,76,VALID,0.711143,
2003-02-27, 02:24:00,VALID,917.198,VALID,0,VALID,97.4621,VALID,-0.0169808,VALID,20.1291,VALID,102,VALID,0.713816,
2003-02-27, 02:25:00,VALID,917.199,VALID,0,VALID,97.6007,VALID,0,VALID,20.1749,VALID,121,VALID,0.388529,
2003-02-27, 02:26:00,VALID,917.191,VALID,0,VALID,97.5486,VALID,0,VALID,20.2072,VALID,121,VALID,0.120393,
2003-02-27, 02:27:00,VALID,917.206,VALID,0,VALID,97.457,VALID,0,VALID,20.2229,VALID,121,VALID,0.120477,
2003-02-27, 02:28:00,VALID,917.199,VALID,0,VALID,97.452,VALID,-0.0169808,VALID,20.2453,VALID,121,VALID,0.164663,
2003-02-27, 02:29:00,VALID,917.174,VALID,0,VALID,97.4036,VALID,0,VALID,20.2711,VALID,121,VALID,0.248598,
2003-02-27, 02:30:00,VALID,917.151,VALID,0,VALID,97.3019,VALID,0,VALID,20.2773,VALID,120,VALID,0.251202,
2003-02-27, 02:31:00,VALID,917.124,VALID,0,VALID,97.1798,VALID,0,VALID,20.2841,VALID,119,VALID,0.290707,
2003-02-27, 02:32:00,VALID,917.105,VALID,0,VALID,97.1493,VALID,0,VALID,20.2948,VALID,119,VALID,0.489926,
2003-02-27, 02:33:00,VALID,917.098,VALID,0,VALID,97.0616,VALID,0,VALID,20.2808,VALID,119,VALID,0.508272,
2003-02-27, 02:34:00,VALID,917.098,VALID,0,VALID,97.0514,VALID,-0.0169808,VALID,20.2711,VALID,119,VALID,0.430859,
2003-02-27, 02:35:00,VALID,917.095,VALID,0,VALID,97.045,VALID,-0.0169808,VALID,20.2875,VALID,123,VALID,0.281661,
2003-02-27, 02:36:00,VALID,917.101,VALID,0,VALID,96.9064,VALID,-0.0169808,VALID,20.2778,VALID,138,VALID,0.448134,
2003-02-27, 02:37:00,VALID,917.088,VALID,0,VALID,96.7704,VALID,-0.0169808,VALID,20.2487,VALID,136,VALID,0.736698,
2003-02-27, 02:38:00,VALID,917.056,VALID,0,VALID,96.9433,VALID,0,VALID,20.2358,VALID,144,VALID,0.951758,
2003-02-27, 02:39:00,VALID,917.024,VALID,0,VALID,97.1061,VALID,0,VALID,20.2323,VALID,146,VALID,0.721094,
2003-02-27, 02:40:00,VALID,917.015,VALID,0,VALID,97.1531,VALID,-0.0169808,VALID,20.2356,VALID,140,VALID,0.796074,
2003-02-27, 02:41:00,VALID,917.006,VALID,0,VALID,97.1226,VALID,0,VALID,20.242,VALID,139,VALID,0.621484,
2003-02-27, 02:42:00,VALID,917.01,VALID,0,VALID,97.0578,VALID,0.0339617,VALID,20.2323,VALID,99,VALID,0.380078,
2003-02-27, 02:43:00,VALID,916.998,VALID,0,VALID,96.8886,VALID,-0.0169808,VALID,20.197,VALID,87,VALID,0.453336,
2003-02-27, 02:44:00,VALID,916.98,VALID,0,VALID,96.6458,VALID,0,VALID,20.1351,VALID,86,VALID,0.48163,
2003-02-27, 02:45:00,VALID,916.971,VALID,0,VALID,96.5733,VALID,0,VALID,20.0742,VALID,73,VALID,0.663477,
2003-02-27, 02:46:00,VALID,916.97,VALID,0,VALID,96.778,VALID,0,VALID,20.0545,VALID,60,VALID,0.83058,
2003-02-27, 02:47:00,VALID,916.992,VALID,0,VALID,97.0934,VALID,0,VALID,20.0841,VALID,50,VALID,0.723242,
2003-02-27, 02:48:00,VALID,917.006,VALID,0,VALID,97.2142,VALID,0,VALID,20.1005,VALID,56,VALID,0.536258,
2003-02-27, 02:49:00,VALID,917.034,VALID,0,VALID,97.1798,VALID,-0.0169808,VALID,20.0903,VALID,57,VALID,0.395559,
2003-02-27, 02:50:00,VALID,917.046,VALID,0,VALID,97.1608,VALID,0,VALID,20.1038,VALID,57,VALID,0.111431,
2003-02-27, 02:51:00,VALID,917.06,VALID,0,VALID,97.2053,VALID,0,VALID,20.0804,VALID,57,VALID,0.000200321,
2003-02-27, 02:52:00,VALID,917.061,VALID,0,VALID,97.1379,VALID,-0.0339617,VALID,20.0871,VALID,56,VALID,0.147461,
2003-02-27, 02:53:00,VALID,917.045,VALID,0,VALID,96.8925,VALID,-0.0339617,VALID,20.062,VALID,47,VALID,0.313978,
2003-02-27, 02:54:00,VALID,917.007,VALID,0,VALID,96.834,VALID,-0.0169808,VALID,20.0095,VALID,47,VALID,0.308694,
2003-02-27, 02:55:00,VALID,916.97,VALID,0,VALID,96.839,VALID,-0.0339617,VALID,19.974,VALID,47,VALID,0.510417,
2003-02-27, 02:56:00,VALID,916.922,VALID,0,VALID,97.026,VALID,0,VALID,19.9842,VALID,47,VALID,0.530194,
2003-02-27, 02:57:00,VALID,916.903,VALID,0,VALID,97.2307,VALID,0,VALID,20.0135,VALID,47,VALID,0.514569,
2003-02-27, 02:58:00,VALID,916.893,VALID,0,VALID,97.1023,VALID,-0.0339617,VALID,20.0192,VALID,47,VALID,0.361914,
2003-02-27, 02:59:00,VALID,916.911,VALID,0,VALID,96.7755,VALID,-0.0169808,VALID,19.9745,VALID,47,VALID,0.0381434,
2003-02-27, 03:00:00,VALID,916.924,VALID,0,VALID,96.9344,VALID,-0.0169808,VALID,19.9745,VALID,47,VALID,0,
2003-02-27, 03:01:00,VALID,916.944,VALID,0,VALID,97.0133,VALID,-0.0169808,VALID,19.9809,VALID,47,VALID,0,
2003-02-27, 03:02:00,VALID,916.934,VALID,0,VALID,96.9204,VALID,-0.0509425,VALID,19.968,VALID,47,VALID,0,
2003-02-27, 03:03:00,VALID,916.897,VALID,0,VALID,96.8365,VALID,0,VALID,19.9421,VALID,47,VALID,0,
2003-02-27, 03:04:00,VALID,916.863,VALID,0,VALID,96.806,VALID,0,VALID,19.9222,VALID,47,VALID,0,
2003-02-27, 03:05:00,VALID,916.836,VALID,0,VALID,96.8085,VALID,0,VALID,19.8966,VALID,47,VALID,0,
2003-02-27, 03:06:00,VALID,916.812,VALID,0,VALID,96.7526,VALID,0,VALID,19.867,VALID,47,VALID,0.13528,
2003-02-27, 03:07:00,VALID,916.811,VALID,0,VALID,96.7513,VALID,0.0169808,VALID,19.8407,VALID,47,VALID,0.190705,
2003-02-27, 03:08:00,VALID,916.825,VALID,0,VALID,96.2439,VALID,0,VALID,19.7542,VALID,47,VALID,0.322316,
2003-02-27, 03:09:00,VALID,916.842,VALID,0,VALID,95.8866,VALID,0,VALID,19.6346,VALID,47,VALID,0.438301,
2003-02-27, 03:10:00,VALID,916.86,VALID,0,VALID,95.8179,VALID,-0.0169808,VALID,19.5473,VALID,47,VALID,0.638569,
2003-02-27, 03:11:00,VALID,916.861,VALID,0,VALID,96.1943,VALID,-0.0339617,VALID,19.5025,VALID,47,VALID,0.677015,
2003-02-27, 03:12:00,VALID,916.85,VALID,0,VALID,96.3647,VALID,0,VALID,19.4831,VALID,47,VALID,0.594669,
2003-02-27, 03:13:00,VALID,916.854,VALID,0,VALID,96.3215,VALID,0,VALID,19.4409,VALID,47,VALID,0.587695,
2003-02-27, 03:14:00,VALID,916.842,VALID,0,VALID,96.3533,VALID,0.0169808,VALID,19.4021,VALID,47,VALID,0.444696,
2003-02-27, 03:15:00,VALID,916.849,VALID,0,VALID,96.5758,VALID,0,VALID,19.3663,VALID,47,VALID,0.20855,
2003-02-27, 03:16:00,VALID,916.846,VALID,0,VALID,96.8454,VALID,0,VALID,19.3631,VALID,47,VALID,0,
2003-02-27, 03:17:00,VALID,916.849,VALID,0,VALID,97.0641,VALID,0,VALID,19.3824,VALID,47,VALID,0,
2003-02-27, 03:18:00,VALID,916.862,VALID,0,VALID,97.2599,VALID,0,VALID,19.4182,VALID,47,VALID,0,
2003-02-27, 03:19:00,VALID,916.87,VALID,0,VALID,97.5575,VALID,-0.0169808,VALID,19.4667,VALID,47,VALID,0,
2003-02-27, 03:20:00,VALID,916.878,VALID,0,VALID,97.8334,VALID,0,VALID,19.5316,VALID,47,VALID,0,
2003-02-27, 03:21:00,VALID,916.877,VALID,0,VALID,97.9848,VALID,-0.0169808,VALID,19.5831,VALID,47,VALID,0.0496094,
2003-02-27, 03:22:00,VALID,916.879,VALID,0,VALID,97.8334,VALID,0,VALID,19.5988,VALID,47,VALID,0.303843,
2003-02-27, 03:23:00,VALID,916.874,VALID,0,VALID,97.8182,VALID,0,VALID,19.6022,VALID,54,VALID,0.267525,
2003-02-27, 03:24:00,VALID,916.87,VALID,0,VALID,97.7915,VALID,0,VALID,19.6027,VALID,60,VALID,0.372852,
2003-02-27, 03:25:00,VALID,916.883,VALID,0,VALID,97.8017,VALID,0.0169808,VALID,19.6057,VALID,106,VALID,0.484598,
2003-02-27, 03:26:00,VALID,916.879,VALID,0,VALID,97.6961,VALID,0,VALID,19.5925,VALID,127,VALID,0.44043,
2003-02-27, 03:27:00,VALID,916.872,VALID,0,VALID,97.6681,VALID,0,VALID,19.5667,VALID,132,VALID,0.48097,
2003-02-27, 03:28:00,VALID,916.866,VALID,0,VALID,97.8754,VALID,0,VALID,19.5734,VALID,135,VALID,0.568668,
2003-02-27, 03:29:00,VALID,916.856,VALID,0,VALID,98.0661,VALID,0,VALID,19.6094,VALID,143,VALID,0.374794,
2003-02-27, 03:30:00,VALID,916.846,VALID,0,VALID,98.0865,VALID,-0.0339617,VALID,19.6219,VALID,145,VALID,0.051883,
2003-02-27, 03:31:00,VALID,916.845,VALID,0,VALID,98.014,VALID,0,VALID,19.6251,VALID,145,VALID,0.0615234,
2003-02-27, 03:32:00,VALID,916.856,VALID,0,VALID,97.9987,VALID,-0.0169808,VALID,19.6286,VALID,145,VALID,0.011402,
2003-02-27, 03:33:00,VALID,916.858,VALID,0,VALID,98.07,VALID,0,VALID,19.648,VALID,145,VALID,0.188902,
2003-02-27, 03:34:00,VALID,916.861,VALID,0,VALID,98.1017,VALID,0,VALID,19.6607,VALID,145,VALID,0.116587,
2003-02-27, 03:35:00,VALID,916.858,VALID,0,VALID,98.1323,VALID,0,VALID,19.6808,VALID,145,VALID,0.271959,
2003-02-27, 03:36:00,VALID,916.853,VALID,0,VALID,98.1857,VALID,-0.0169808,VALID,19.6932,VALID,145,VALID,0.167652,
2003-02-27, 03:37:00,VALID,916.84,VALID,0,VALID,98.2823,VALID,-0.0339617,VALID,19.729,VALID,145,VALID,0.213867,
2003-02-27, 03:38:00,VALID,916.823,VALID,0,VALID,98.276,VALID,-0.0169808,VALID,19.7579,VALID,145,VALID,0,
2003-02-27, 03:39:00,VALID,916.803,VALID,0,VALID,98.1119,VALID,-0.0169808,VALID,19.7318,VALID,145,VALID,0.140008,
2003-02-27, 03:40:00,VALID,916.773,VALID,0,VALID,98.07,VALID,0,VALID,19.739,VALID,140,VALID,0.217348,
2003-02-27, 03:41:00,VALID,916.753,VALID,0,VALID,97.9873,VALID,0,VALID,19.7253,VALID,135,VALID,0.0538651,
2003-02-27, 03:42:00,VALID,916.742,VALID,0,VALID,98.0204,VALID,0,VALID,19.7256,VALID,135,VALID,0.293174,